{"data":{"norad_id":66574,"intl_designator":"2025-268T","name":"STARLINK-35812","alt_names":[],"object_type":"PAYLOAD","status":"ACTIVE","operator":null,"country":"US","launch_date":"2025-11-21","launch_site_code":"AFETR","launch_vehicle":null,"mission":null,"orbit_class":"UNKNOWN","rcs_meters":null,"size_class":null,"mass_kg":null,"dimensions":null,"purposes":["comms"],"wikipedia_slug":null,"has_3d_model":false,"image_url":null,"decayed_at":null,"tle_current":{"epoch":"2026-05-24T18:35:51.045504Z","epoch_age_seconds":84775,"freshness":"FRESH","line1":"1 66574U 25268T   26144.77489636  .00018085  00000+0  66466-3 0  9990","line2":"2 66574  42.9998 277.5821 0001521 266.3787  93.6890 15.27601577 29592","mean_motion":15.27601577,"eccentricity":0.0001521,"inclination_deg":42.9998,"raan_deg":277.5821,"arg_perigee_deg":266.3787,"mean_anomaly_deg":93.689,"bstar":0.00066466,"rev_number":2959,"period_min":94.265417218799,"perigee_km":481.94091092161,"apogee_km":484.02806407811,"semimajor_km":6861.1214874999,"source":"CELESTRAK","updated_at":"2026-05-25T13:38:21.283423Z"}}}